Weather History for KASX - January, 2014

Change the Weather History Date:

Monday, January 6, 2014

  Actual Average Record
Temperature  
Mean Temperature -19 °F -  
Max Temperature -14 °F 22 °F 43 °F (2012)
Min Temperature -24 °F 2 °F -25 °F (1968)
Degree Days  
Heating Degree Days 84    
Moisture  
Dew Point -27 °F    
Average Humidity 67    
Maximum Humidity 76    
Minimum Humidity 58    
Precipitation  
Precipitation 0.00 in - - ()
Sea Level Pressure  
Sea Level Pressure 30.14 in    
Wind  
Wind Speed 11 mph (West)    
Max Wind Speed 16 mph    
Max Gust Speed 24 mph    
Visibility 4 miles    
Events      
Averages and records for this station are not official NWS values.
T = Trace of Precipitation, MM = Missing Value Source: NWS Daily Summary

Daily Weather History Graph

Daily Weather History Graph

Search for Another Location

Airport or City:

Trip Planner

Search our weather history database for the weather conditions in past years. The results will help you decide how hot, cold, wet, or windy it might be!

Date:

Astronomy

Jan. 06, 2014 Rise Set
Actual Time 7:47 AM CST 4:32 PM CST
Civil Twilight 7:12 AM CST 5:06 PM CST
Nautical Twilight 6:34 AM CST 5:44 PM CST
Astronomical Twilight 5:58 AM CST 6:21 PM CST
Moon 10:39 AM CST 11:31 PM CST
Length of Visible Light 9h 54m
Length of Day
8h 45m
Waxing Crescent, 35% of the Moon is Illuminated
Jan 6
Waxing Crescent
Jan 7
First Quarter
Jan 15
Full
Jan 23
Last Quarter
Jan 30
New

Hourly Weather History & Observations

Time (CST) Temp. Windchill Dew Point Humidity Pressure Visibility Wind Dir Wind Speed Gust Speed Precip Events Conditions
12:09 AM -16.6 °F -34.4 °F -23.8 °F 70% 30.17 in 1.8 mi NW 8.1 mph 17.3 mph N/A   Haze
12:15 AM -16.6 °F -37.9 °F -23.8 °F 70% 30.16 in 3.0 mi WNW 11.5 mph - N/A   Haze
12:29 AM -16.6 °F -34.4 °F -23.8 °F 70% 30.16 in 2.0 mi NW 8.1 mph - N/A   Haze
12:46 AM -16.6 °F -32.9 °F -23.8 °F 70% 30.16 in 1.8 mi Variable 6.9 mph - N/A   Haze
12:53 AM -17.0 °F -37.3 °F -24.0 °F 70% 30.25 in 2.0 mi WNW 10.4 mph - N/A   Haze
12:58 AM -16.6 °F -32.9 °F -23.8 °F 70% 30.16 in 3.0 mi West 6.9 mph - N/A   Haze
1:45 AM -20.2 °F -41.3 °F -25.6 °F 76% 30.16 in 2.5 mi West 10.4 mph - N/A   Haze
1:53 AM -20.0 °F -41.1 °F -26.0 °F 74% 30.25 in 2.5 mi West 10.4 mph - N/A   Haze
2:36 AM -20.2 °F -42.4 °F -27.4 °F 69% 30.16 in 3.0 mi West 11.5 mph - N/A   Haze
2:53 AM -22.0 °F -44.7 °F -27.9 °F 74% 30.25 in 3.0 mi West 11.5 mph - N/A   Haze
3:22 AM -23.8 °F -45.8 °F -29.2 °F 76% 30.15 in 2.5 mi WSW 10.4 mph - N/A   Haze
3:53 AM -24.0 °F -43.4 °F -29.9 °F 74% 30.25 in 3.0 mi WSW 8.1 mph - N/A   Haze
4:00 AM -23.8 °F -44.5 °F -29.2 °F 76% 30.15 in 2.5 mi WSW 9.2 mph - N/A   Haze
4:48 AM -23.8 °F -43.2 °F -31.0 °F 69% 30.14 in 3.0 mi WSW 8.1 mph - N/A   Haze
4:53 AM -24.0 °F -44.8 °F -31.0 °F 70% 30.24 in 4.0 mi WSW 9.2 mph 16.1 mph N/A   Haze
5:16 AM -23.8 °F -45.8 °F -29.2 °F 76% 30.13 in 6.0 mi WSW 10.4 mph - N/A   Haze
5:27 AM -23.8 °F -44.5 °F -29.2 °F 76% 30.13 in 6.0 mi WSW 9.2 mph - N/A   Haze
5:53 AM -23.1 °F -44.9 °F -29.9 °F 70% 30.22 in 7.0 mi WSW 10.4 mph - N/A   Overcast
6:18 AM -23.8 °F -45.8 °F -29.2 °F 76% 30.12 in 5.0 mi West 10.4 mph - N/A   Haze
6:53 AM -22.0 °F -47.5 °F -29.0 °F 70% 30.22 in 3.0 mi West 15.0 mph - N/A   Haze
7:06 AM -22.0 °F -47.5 °F -29.2 °F 69% 30.12 in 3.0 mi West 15.0 mph 19.6 mph N/A   Haze
7:53 AM -22.0 °F -45.7 °F -29.9 °F 67% 30.22 in 3.0 mi West 12.7 mph - N/A   Haze
8:15 AM -22.0 °F -44.7 °F -29.2 °F 69% 30.12 in 2.5 mi West 11.5 mph - N/A   Haze
8:43 AM -22.0 °F -44.7 °F -29.2 °F 69% 30.12 in 1.8 mi West 11.5 mph - N/A   Haze
8:51 AM -22.0 °F -45.7 °F -29.2 °F 69% 30.12 in 2.0 mi West 12.7 mph - N/A   Haze
8:53 AM -22.0 °F -44.7 °F -29.0 °F 70% 30.23 in 2.0 mi West 11.5 mph - N/A   Haze
9:27 AM -20.2 °F -41.3 °F -29.2 °F 63% 30.12 in 2.5 mi West 10.4 mph - N/A   Haze
9:53 AM -20.9 °F -41.0 °F -27.9 °F 70% 30.22 in 2.5 mi West 9.2 mph - N/A   Haze
10:18 AM -20.2 °F -40.1 °F -27.4 °F 69% 30.12 in 2.0 mi West 9.2 mph 17.3 mph N/A   Haze
10:53 AM -20.0 °F -45.0 °F -27.9 °F 67% 30.21 in 2.0 mi West 15.0 mph 19.6 mph N/A   Haze
11:30 AM -18.4 °F -40.2 °F -27.4 °F 63% 30.09 in 3.0 mi West 11.5 mph 19.6 mph N/A   Haze
11:42 AM -18.4 °F -40.2 °F -27.4 °F 63% 30.09 in 2.0 mi West 11.5 mph 19.6 mph N/A   Haze
11:53 AM -18.9 °F -41.8 °F -27.0 °F 66% 30.19 in 2.5 mi West 12.7 mph 18.4 mph N/A   Haze
11:58 AM -18.4 °F -40.2 °F -27.4 °F 63% 30.09 in 3.0 mi West 11.5 mph - N/A   Haze
12:07 PM -18.4 °F -42.1 °F -27.4 °F 63% 30.08 in 2.5 mi West 13.8 mph - N/A   Haze
12:14 PM -18.4 °F -41.2 °F -25.6 °F 70% 30.08 in 2.5 mi WSW 12.7 mph - N/A   Haze
12:27 PM -18.4 °F -41.2 °F -27.4 °F 63% 30.07 in 3.0 mi WSW 12.7 mph - N/A   Haze
12:53 PM -18.0 °F -42.5 °F -27.0 °F 64% 30.17 in 4.0 mi West 15.0 mph - N/A   Haze
1:19 PM -18.4 °F -42.9 °F -27.4 °F 63% 30.06 in 2.0 mi West 15.0 mph 24.2 mph N/A   Haze
1:33 PM -16.6 °F -38.9 °F -25.6 °F 64% 30.06 in 3.0 mi West 12.7 mph - N/A   Haze
1:42 PM -16.6 °F -38.9 °F -25.6 °F 64% 30.06 in 2.0 mi West 12.7 mph 21.9 mph N/A   Haze
1:53 PM -16.1 °F -39.1 °F -26.0 °F 61% 30.15 in 3.0 mi West 13.8 mph 21.9 mph N/A   Haze
2:13 PM -16.6 °F -36.8 °F -25.6 °F 64% 30.05 in 3.0 mi West 10.4 mph - N/A   Haze
2:36 PM -14.8 °F -37.5 °F -25.6 °F 58% 30.05 in 2.5 mi West 13.8 mph 23.0 mph N/A   Haze
2:45 PM -14.8 °F -36.6 °F -23.8 °F 64% 30.05 in 4.0 mi West 12.7 mph 21.9 mph N/A   Haze
2:53 PM -15.0 °F -38.5 °F -25.1 °F 61% 30.16 in 7.0 mi West 15.0 mph 20.7 mph N/A   Overcast
3:53 PM -15.0 °F -37.7 °F -25.1 °F 61% 30.16 in 10.0 mi West 13.8 mph - N/A   Overcast
4:06 PM -14.8 °F -35.6 °F -25.6 °F 58% 30.05 in 10.0 mi West 11.5 mph - N/A   Mostly Cloudy
4:30 PM -14.8 °F -35.6 °F -25.6 °F 58% 30.06 in 10.0 mi West 11.5 mph - N/A   Mostly Cloudy
4:53 PM -15.0 °F -39.3 °F -24.0 °F 64% 30.16 in 9.0 mi West 16.1 mph 23.0 mph N/A   Overcast
5:53 PM -16.1 °F -37.2 °F -26.0 °F 61% 30.15 in 10.0 mi WSW 11.5 mph - N/A   Clear
6:53 PM -15.0 °F -38.5 °F -26.0 °F 58% 30.15 in 10.0 mi West 15.0 mph - N/A   Overcast
7:53 PM -16.1 °F -37.2 °F -26.0 °F 61% 30.14 in 10.0 mi WSW 11.5 mph - N/A   Scattered Clouds
8:53 PM -16.1 °F -39.1 °F -26.0 °F 61% 30.14 in 10.0 mi West 13.8 mph - N/A   Clear
9:53 PM -17.0 °F -39.3 °F -26.0 °F 64% 30.14 in 10.0 mi West 12.7 mph - N/A   Overcast
10:53 PM -17.0 °F -38.4 °F -26.0 °F 64% 30.14 in 10.0 mi West 11.5 mph - N/A   Overcast
11:53 PM -18.9 °F -40.8 °F -27.0 °F 66% 30.12 in 10.0 mi WSW 11.5 mph - N/A   Clear